"Pseudo-MPEC" for ZTs0228

Created 2024 Jun 27 7:22:10 UT using Find_Orb

Click here for an explanation of pseudo-MPECs

 
 Astrometry: 
     ZTs0228* C2024 06 10.24654516 06 41.972+14 10 01.25   ~6AGb 18.63gUNEOCPI41
     ZTs0228  C2024 06 10.24689216 06 40.643+14 09 33.54   ~6AGb 18.63gUNEOCPI41
     ZTs0228  C2024 06 10.27517316 04 55.639+13 31 35.36   ~6BBM 18.48RUNEOCPI41
     ZTs0228  C2024 06 10.27552016 04 54.413+13 31 08.61   ~6BBM 18.48RUNEOCPI41
     ZTs0228  C2024 06 10.29514016 03 43.789+13 05 25.64   ~6AGb 18.18RUNEOCPI41
     ZTs0228  C2024 06 10.29548816 03 42.523+13 04 58.53   ~6AGb 18.18RUNEOCPI41

Station data:
(I41) Palomar Mountain--ZTF  (N33.357336 W116.859780)  US/California.
   Observers B. T. Bolin, Z. T. F. Collaboration. Measurers B. T. Bolin,
   Z.-Y. Lin, F. J. Masci. 1.2-m f/2.4 Schmidt.

Orbital elements:  ZTs0228
   Perihelion 2024 Apr 7.51945 +/- 24.6 TT = 12:28:00 (JD 2460408.01945)
Epoch 2024 Jun 10.0 TT = JDT 2460471.5   Earth MOID: 0.0082   Ve: 0.0052
M  92.77109470 +/- 33               Me: 0.0116                   AutoNEOCP
n   1.46140966 +/- 0.0353           Peri.   23.70824 +/- 1.9
a   0.76905027 +/- 0.0124           Node    85.38548 +/- 3.7
e   0.6151574 +/- 0.298             Incl.    3.86487 +/- 4.7
P   0.67/246.33d           H 26.36  G  0.15   U 10.6
q 0.29596326 +/- 0.234    Q 1.24213728 +/- 0.21           (J2000 ecliptic)
From 6 observations 2024 June 10 (70.5 min); mean residual 0".26
Residuals in arcseconds: 
240610 I41  .13+  .31-    240610 I41  .29-  .40-    240610 I41  .22+  .01+    
240610 I41  .13-  .32+    240610 I41  .28+  .40+    240610 I41  .22-  .01-    

Ephemerides (geocentric):
Date (UTC) HH   RA             Dec           delta  r     elong  mag " sig PA
---- --------  ------------   ------------  ------ ------ -----  --- --------
2024 06 27 07  14 51 41.368   -18 16 24.32  .17043 1.1339 130.1 24.5 220'  71
2024 06 27 08  14 51 41.763   -18 16 49.21  .17082 1.1341 130.1 24.5 220'  71
2024 06 27 09  14 51 42.164   -18 17 14.02  .17122 1.1343 130.0 24.5 220'  71
2024 06 27 10  14 51 42.572   -18 17 38.75  .17162 1.1345 130.0 24.5 220'  71
2024 06 27 11  14 51 42.987   -18 18 03.40  .17202 1.1347 130.0 24.5 220'  71
2024 06 27 12  14 51 43.408   -18 18 27.97  .17241 1.1349 129.9 24.5 220'  71
2024 06 27 13  14 51 43.836   -18 18 52.45  .17281 1.1352 129.9 24.5 220'  71
2024 06 27 14  14 51 44.270   -18 19 16.86  .17321 1.1354 129.9 24.5 220'  71
2024 06 27 15  14 51 44.711   -18 19 41.19  .17361 1.1356 129.8 24.5 220'  71
2024 06 27 16  14 51 45.158   -18 20 05.44  .17400 1.1358 129.8 24.5 220'  71
2024 06 27 17  14 51 45.612   -18 20 29.61  .17440 1.1360 129.7 24.5 220'  71
2024 06 27 18  14 51 46.072   -18 20 53.71  .17480 1.1362 129.7 24.5 220'  71
2024 06 27 19  14 51 46.539   -18 21 17.73  .17520 1.1364 129.7 24.5 220'  71
2024 06 27 20  14 51 47.012   -18 21 41.67  .17559 1.1367 129.6 24.5 220'  71
2024 06 27 21  14 51 47.491   -18 22 05.54  .17599 1.1369 129.6 24.6 220'  71
2024 06 27 22  14 51 47.977   -18 22 29.33  .17639 1.1371 129.6 24.6 220'  71
2024 06 27 23  14 51 48.469   -18 22 53.05  .17679 1.1373 129.5 24.6 220'  71
2024 06 28 00  14 51 48.967   -18 23 16.70  .17718 1.1375 129.5 24.6 220'  71
2024 06 28 01  14 51 49.471   -18 23 40.27  .17758 1.1377 129.5 24.6 220'  71
2024 06 28 02  14 51 49.982   -18 24 03.77  .17798 1.1379 129.4 24.6 220'  71
2024 06 28 03  14 51 50.499   -18 24 27.20  .17838 1.1381 129.4 24.6 220'  71
2024 06 28 04  14 51 51.022   -18 24 50.55  .17878 1.1384 129.3 24.6 221'  71
2024 06 28 05  14 51 51.551   -18 25 13.84  .17917 1.1386 129.3 24.6 221'  71
2024 06 28 06  14 51 52.087   -18 25 37.05  .17957 1.1388 129.3 24.6 221'  71
2024 06 28 07  14 51 52.628   -18 26 00.20  .17997 1.1390 129.2 24.6 221'  71
2024 06 28 08  14 51 53.176   -18 26 23.27  .18037 1.1392 129.2 24.6 221'  71
2024 06 28 09  14 51 53.730   -18 26 46.28  .18077 1.1394 129.2 24.6 221'  71
2024 06 28 10  14 51 54.290   -18 27 09.22  .18116 1.1396 129.1 24.6 221'  71
2024 06 28 11  14 51 54.855   -18 27 32.09  .18156 1.1398 129.1 24.6 221'  71
2024 06 28 12  14 51 55.427   -18 27 54.89  .18196 1.1400 129.1 24.6 221'  71
2024 06 28 13  14 51 56.005   -18 28 17.63  .18236 1.1403 129.0 24.6 221'  71
2024 06 28 14  14 51 56.589   -18 28 40.30  .18276 1.1405 129.0 24.6 221'  71
2024 06 28 15  14 51 57.179   -18 29 02.90  .18315 1.1407 129.0 24.7 221'  71
2024 06 28 16  14 51 57.774   -18 29 25.44  .18355 1.1409 128.9 24.7 221'  71
2024 06 28 17  14 51 58.376   -18 29 47.91  .18395 1.1411 128.9 24.7 221'  71
2024 06 28 18  14 51 58.983   -18 30 10.32  .18435 1.1413 128.8 24.7 221'  71
2024 06 28 19  14 51 59.597   -18 30 32.67  .18475 1.1415 128.8 24.7 221'  71
2024 06 28 20  14 52 00.216   -18 30 54.95  .18515 1.1417 128.8 24.7 221'  71
2024 06 28 21  14 52 00.841   -18 31 17.17  .18555 1.1419 128.7 24.7 221'  71
2024 06 28 22  14 52 01.472   -18 31 39.33  .18594 1.1421 128.7 24.7 221'  71
2024 06 28 23  14 52 02.109   -18 32 01.42  .18634 1.1423 128.7 24.7 221'  71
2024 06 29 00  14 52 02.751   -18 32 23.45  .18674 1.1425 128.6 24.7 221'  71
2024 06 29 01  14 52 03.399   -18 32 45.42  .18714 1.1428 128.6 24.7 221'  71
2024 06 29 02  14 52 04.053   -18 33 07.33  .18754 1.1430 128.6 24.7 221'  71
2024 06 29 03  14 52 04.713   -18 33 29.18  .18794 1.1432 128.5 24.7 221'  71
2024 06 29 04  14 52 05.378   -18 33 50.97  .18834 1.1434 128.5 24.7 221'  71
2024 06 29 05  14 52 06.049   -18 34 12.70  .18873 1.1436 128.5 24.7 221'  71
2024 06 29 06  14 52 06.725   -18 34 34.38  .18913 1.1438 128.4 24.7 222'  71